This is the latest recevied weather packets stored in our database for station/object WA9NNN-10. If no packets are shown the sender has not sent any weather packets the latest 10 day(s).
| Time | Temp. | Humidity | Pressure | Rain* | Wind** | Luminosity | Snow |
|---|---|---|---|---|---|---|---|
| 1788101312 | 21.67° C | 88% | 1015.2 hPa | 0 mm | - | - | - |
| 1788101012 | 21.67° C | 88% | 1015.2 hPa | 0 mm | - | - | - |
| 1788100711 | 21.11° C | 89% | 1015.3 hPa | 0 mm | - | - | - |
| 1788100411 | 21.11° C | 89% | 1015.4 hPa | 0.25 mm | - | - | - |
| 1788100112 | 21.11° C | 89% | 1015.4 hPa | 1.52 mm | - | - | - |
| 1788099813 | 21.11° C | 89% | 1015.3 hPa | 2.54 mm | - | - | - |
| 1788099511 | 21.11° C | 89% | 1015.3 hPa | 2.54 mm | - | - | - |
| 1788099211 | 20.56° C | 89% | 1015.3 hPa | 2.54 mm | - | - | - |
| 1788098911 | 20.56° C | 89% | 1015.4 hPa | 2.54 mm | - | - | - |
| 1788098611 | 20.56° C | 89% | 1015.3 hPa | 2.79 mm | - | - | - |
| 1788098312 | 20.56° C | 89% | 1015.3 hPa | 3.05 mm | - | - | - |
| 1788097712 | 20.56° C | 88% | 1015.5 hPa | 3.56 mm | - | - | - |
| 1788097412 | 20.56° C | 88% | 1015.6 hPa | 3.81 mm | - | - | - |
| 1788097111 | 20.56° C | 88% | 1015.6 hPa | 3.81 mm | - | - | - |
| 1788096811 | 20.56° C | 88% | 1015.6 hPa | 3.56 mm | - | - | - |
| 1788096512 | 20.56° C | 87% | 1015.8 hPa | 2.79 mm | - | - | - |
| 1788096212 | 20.56° C | 87% | 1016.2 hPa | 1.78 mm | - | - | - |
| 1788095912 | 21.11° C | 87% | 1016.2 hPa | 2.03 mm | - | - | - |
| 1788095612 | 21.11° C | 86% | 1016.4 hPa | 2.03 mm | - | - | - |
| 1788095312 | 21.11° C | 86% | 1016.5 hPa | 2.03 mm | - | - | - |
| 1788095012 | 21.11° C | 86% | 1016.8 hPa | 1.78 mm | - | - | - |
| 1788094712 | 21.11° C | 85% | 1016.7 hPa | 1.52 mm | - | - | - |
| 1788094412 | 21.11° C | 85% | 1016.5 hPa | 1.27 mm | - | - | - |
| 1788094111 | 21.11° C | 84% | 1016.5 hPa | 1.02 mm | - | - | - |
| 1788093813 | 21.11° C | 83% | 1016.7 hPa | 0.76 mm | - | - | - |
* Rain latest hour (hover to see other rain measurements)
** Current wind speed in m/s (hover to see current wind gust speed)